QUETZAL-1

Last updated on Mon Feb 28 2022 00:02:05 GMT+0000 (Coordinated Universal Time)

1 45598U 98067RL 22058.26358165 .11674468 12483-4 61790-3 0 9999 2 45598 51.6159 103.9349 0001315 314.4869 45.6051 16.42508540104623

Satellite not in orbit